Time,TemperatureF,DewpointF,PressureIn,WindDirection,WindDirectionDegrees,WindSpeedMPH,WindSpeedGustMPH,Humidity,HourlyPrecipIn,Conditions,Clouds,dailyrainin,SoftwareType,DateUTC
2013-02-13 00:11:00,21.0,16.0,-100.00,NE,47,6.0,11.0,79,-99.99,,,-99.99,,2013-02-13 05:11:00,
2013-02-13 00:22:00,21.0,16.0,-100.00,NE,56,5.0,9.0,79,-99.99,,,-99.99,,2013-02-13 05:22:00,
2013-02-13 00:31:00,21.0,16.0,-100.00,NNE,28,4.0,8.0,79,-99.99,,,-99.99,,2013-02-13 05:31:00,
2013-02-13 00:41:00,21.0,16.0,-100.00,NE,45,2.0,5.0,79,-99.99,,,-99.99,,2013-02-13 05:41:00,
2013-02-13 00:52:00,16.0,11.0,-100.00,NE,35,2.0,5.0,78,-99.99,,,-99.99,,2013-02-13 05:52:00,
2013-02-13 01:02:00,16.0,12.0,-100.00,North,4,2.0,4.0,84,-99.99,,,-99.99,,2013-02-13 06:02:00,
2013-02-13 01:11:00,18.0,14.0,-100.00,NE,34,2.0,5.0,85,-99.99,,,-99.99,,2013-02-13 06:11:00,
2013-02-13 01:21:00,14.0,10.0,-100.00,North,8,2.0,4.0,83,-99.99,,,-99.99,,2013-02-13 06:21:00,
2013-02-13 01:31:00,16.0,12.0,-100.00,NE,56,3.0,5.0,84,-99.99,,,-99.99,,2013-02-13 06:31:00,
2013-02-13 01:41:00,17.0,13.0,-100.00,NE,48,5.0,8.0,86,-99.99,,,-99.99,,2013-02-13 06:41:00,
2013-02-13 01:51:00,17.0,13.0,-100.00,NE,49,3.0,8.0,84,-99.99,,,-99.99,,2013-02-13 06:51:00,
2013-02-13 02:02:00,15.0,11.0,-100.00,North,4,2.0,3.0,83,-99.99,,,-99.99,,2013-02-13 07:02:00,
2013-02-13 02:11:00,14.0,11.0,-100.00,NNE,17,3.0,5.0,87,-99.99,,,-99.99,,2013-02-13 07:11:00,
2013-02-13 02:21:00,17.0,14.0,-100.00,NNE,28,3.0,5.0,89,-99.99,,,-99.99,,2013-02-13 07:21:00,
2013-02-13 02:31:00,16.0,12.0,-100.00,NNE,17,3.0,5.0,86,-99.99,,,-99.99,,2013-02-13 07:31:00,
2013-02-13 02:41:00,19.0,15.0,-100.00,NE,47,4.0,8.0,81,-99.99,,,-99.99,,2013-02-13 07:41:00,
2013-02-13 02:51:00,21.0,15.0,-100.00,NE,38,6.0,9.0,79,-99.99,,,-99.99,,2013-02-13 07:51:00,
2013-02-13 03:01:00,21.0,15.0,-100.00,NNE,32,6.0,10.0,78,-99.99,,,-99.99,,2013-02-13 08:01:00,
2013-02-13 03:11:00,21.0,16.0,-100.00,NE,37,6.0,11.0,78,-99.99,,,-99.99,,2013-02-13 08:11:00,
2013-02-13 03:21:00,21.0,15.0,-100.00,NNE,23,7.0,11.0,78,-99.99,,,-99.99,,2013-02-13 08:21:00,
2013-02-13 03:31:00,20.0,15.0,-100.00,NNE,21,7.0,11.0,78,-99.99,,,-99.99,,2013-02-13 08:31:00,
2013-02-13 03:43:00,22.0,16.0,-100.00,NE,35,9.0,13.0,78,-99.99,,,-99.99,,2013-02-13 08:43:00,
2013-02-13 03:52:00,22.0,16.0,-100.00,ENE,58,10.0,15.0,78,-99.99,,,-99.99,,2013-02-13 08:52:00,
2013-02-13 04:01:00,22.0,16.0,-100.00,NE,55,9.0,13.0,77,-99.99,,,-99.99,,2013-02-13 09:01:00,
2013-02-13 04:11:00,20.0,15.0,-100.00,NE,55,7.0,9.0,79,-99.99,,,-99.99,,2013-02-13 09:11:00,
2013-02-13 04:21:00,20.0,15.0,-100.00,NE,48,6.0,8.0,81,-99.99,,,-99.99,,2013-02-13 09:21:00,
2013-02-13 04:31:00,19.0,15.0,-100.00,NE,40,6.0,8.0,82,-99.99,,,-99.99,,2013-02-13 09:31:00,
2013-02-13 04:41:00,17.0,12.0,-100.00,North,7,4.0,7.0,79,-99.99,,,-99.99,,2013-02-13 09:41:00,
2013-02-13 04:51:00,16.0,12.0,-100.00,North,352,3.0,6.0,83,-99.99,,,-99.99,,2013-02-13 09:51:00,
2013-02-13 05:01:00,19.0,15.0,-100.00,ENE,65,4.0,10.0,83,-99.99,,,-99.99,,2013-02-13 10:01:00,
2013-02-13 05:11:00,20.0,15.0,-100.00,ENE,66,8.0,10.0,79,-99.99,,,-99.99,,2013-02-13 10:11:00,
2013-02-13 05:21:00,20.0,15.0,-100.00,ENE,64,7.0,9.0,80,-99.99,,,-99.99,,2013-02-13 10:21:00,
2013-02-13 05:31:00,19.0,14.0,-100.00,ENE,69,6.0,8.0,81,-99.99,,,-99.99,,2013-02-13 10:31:00,
2013-02-13 05:41:00,15.0,11.0,-100.00,NE,48,6.0,7.0,82,-99.99,,,-99.99,,2013-02-13 10:41:00,
2013-02-13 05:51:00,15.0,11.0,-100.00,NE,34,7.0,9.0,83,-99.99,,,-99.99,,2013-02-13 10:51:00,
2013-02-13 06:01:00,14.0,11.0,-100.00,NNE,24,6.0,8.0,88,-99.99,,,-99.99,,2013-02-13 11:01:00,
2013-02-13 06:11:00,13.0,10.0,-100.00,North,11,4.0,5.0,89,-99.99,,,-99.99,,2013-02-13 11:11:00,
2013-02-13 06:22:00,14.0,12.0,-100.00,North,10,5.0,7.0,90,-99.99,,,-99.99,,2013-02-13 11:22:00,
2013-02-13 06:32:00,15.0,13.0,-100.00,NNE,16,6.0,8.0,89,-99.99,,,-99.99,,2013-02-13 11:32:00,
2013-02-13 06:42:00,20.0,16.0,-100.00,NE,34,7.0,14.0,87,-99.99,,,-99.99,,2013-02-13 11:42:00,
2013-02-13 06:52:00,22.0,16.0,-100.00,NE,55,9.0,14.0,77,-99.99,,,-99.99,,2013-02-13 11:52:00,
2013-02-13 07:02:00,21.0,15.0,-100.00,NE,55,8.0,13.0,76,-99.99,,,-99.99,,2013-02-13 12:02:00,
2013-02-13 07:11:00,19.0,13.0,-100.00,NE,42,6.0,14.0,79,-99.99,,,-99.99,,2013-02-13 12:11:00,
2013-02-13 07:21:00,18.0,11.0,-100.00,NE,45,6.0,10.0,74,-99.99,,,-99.99,,2013-02-13 12:21:00,
2013-02-13 07:32:00,14.0,10.0,-100.00,NNE,27,4.0,7.0,83,-99.99,,,-99.99,,2013-02-13 12:32:00,
2013-02-13 07:42:00,14.0,10.0,-100.00,NNE,30,5.0,9.0,84,-99.99,,,-99.99,,2013-02-13 12:42:00,
2013-02-13 07:52:00,17.0,13.0,-100.00,NE,41,5.0,9.0,85,-99.99,,,-99.99,,2013-02-13 12:52:00,
2013-02-13 08:02:00,15.0,10.0,-100.00,NNE,27,5.0,9.0,79,-99.99,,,-99.99,,2013-02-13 13:02:00,
2013-02-13 08:11:00,13.0,9.0,-100.00,NNE,27,3.0,6.0,86,-99.99,,,-99.99,,2013-02-13 13:11:00,
2013-02-13 08:21:00,13.0,9.0,-100.00,NNE,27,4.0,6.0,85,-99.99,,,-99.99,,2013-02-13 13:21:00,
2013-02-13 08:31:00,11.0,8.0,-100.00,NE,37,5.0,7.0,88,-99.99,,,-99.99,,2013-02-13 13:31:00,
2013-02-13 08:41:00,10.0,8.0,-100.00,NE,38,4.0,6.0,89,-99.99,,,-99.99,,2013-02-13 13:41:00,
2013-02-13 08:51:00,10.0,7.0,-100.00,NNE,24,3.0,4.0,88,-99.99,,,-99.99,,2013-02-13 13:51:00,
2013-02-13 09:01:00,9.0,7.0,-100.00,North,10,4.0,5.0,91,-99.99,,,-99.99,,2013-02-13 14:01:00,
2013-02-13 09:11:00,9.0,6.0,-100.00,NNE,24,4.0,5.0,89,-99.99,,,-99.99,,2013-02-13 14:11:00,
2013-02-13 09:21:00,10.0,8.0,-100.00,NNE,24,4.0,6.0,91,-99.99,,,-99.99,,2013-02-13 14:21:00,
2013-02-13 09:31:00,10.0,8.0,-100.00,NNE,24,4.0,6.0,91,-99.99,,,-99.99,,2013-02-13 14:31:00,
2013-02-13 09:41:00,7.0,5.0,-100.00,North,353,2.0,4.0,88,-99.99,,,-99.99,,2013-02-13 14:41:00,
2013-02-13 09:52:00,7.0,4.0,-100.00,NNW,344,3.0,5.0,88,-99.99,,,-99.99,,2013-02-13 14:52:00,
2013-02-13 10:01:00,7.0,4.0,-100.00,North,360,2.0,4.0,88,-99.99,,,-99.99,,2013-02-13 15:01:00,
2013-02-13 10:11:00,6.0,3.0,-100.00,North,6,2.0,5.0,88,-99.99,,,-99.99,,2013-02-13 15:11:00,
2013-02-13 10:21:00,6.0,3.0,-100.00,North,350,2.0,4.0,89,-99.99,,,-99.99,,2013-02-13 15:21:00,
2013-02-13 10:32:00,6.0,4.0,-100.00,North,11,3.0,4.0,89,-99.99,,,-99.99,,2013-02-13 15:32:00,
2013-02-13 10:42:00,7.0,4.0,-100.00,NNE,31,3.0,5.0,88,-99.99,,,-99.99,,2013-02-13 15:42:00,
2013-02-13 10:51:00,8.0,6.0,-100.00,NNE,13,1.0,3.0,90,-99.99,,,-99.99,,2013-02-13 15:51:00,
2013-02-13 11:01:00,9.0,7.0,-100.00,NNW,333,3.0,5.0,90,-99.99,,,-99.99,,2013-02-13 16:01:00,
2013-02-13 11:11:00,12.0,10.0,-100.00,North,360,2.0,5.0,90,-99.99,,,-99.99,,2013-02-13 16:11:00,
2013-02-13 11:21:00,12.0,10.0,-100.00,North,349,2.0,3.0,89,-99.99,,,-99.99,,2013-02-13 16:21:00,
2013-02-13 11:31:00,12.0,10.0,-100.00,North,349,2.0,3.0,89,-99.99,,,-99.99,,2013-02-13 16:31:00,
2013-02-13 11:41:00,17.0,14.0,-100.00,North,354,1.0,5.0,88,-99.99,,,-99.99,,2013-02-13 16:41:00,
2013-02-13 11:51:00,18.0,14.0,-100.00,NNE,24,3.0,5.0,86,-99.99,,,-99.99,,2013-02-13 16:51:00,
2013-02-13 12:01:00,23.0,16.0,-100.00,North,10,3.0,5.0,77,-99.99,,,-99.99,,2013-02-13 17:01:00,
2013-02-13 12:11:00,24.0,17.0,-100.00,North,360,3.0,5.0,72,-99.99,,,-99.99,,2013-02-13 17:11:00,
2013-02-13 12:21:00,27.0,17.0,-100.00,NNE,30,5.0,12.0,66,-99.99,,,-99.99,,2013-02-13 17:21:00,
2013-02-13 12:31:00,27.0,17.0,-100.00,NE,34,7.0,11.0,64,-99.99,,,-99.99,,2013-02-13 17:31:00,
2013-02-13 12:41:00,28.0,17.0,-100.00,NNE,31,6.0,10.0,63,-99.99,,,-99.99,,2013-02-13 17:41:00,
2013-02-13 12:52:00,28.0,17.0,-100.00,NE,44,9.0,12.0,62,-99.99,,,-99.99,,2013-02-13 17:52:00,
2013-02-13 13:01:00,28.0,17.0,-100.00,NNE,30,8.0,12.0,61,-99.99,,,-99.99,,2013-02-13 18:01:00,
2013-02-13 13:11:00,30.0,18.0,-100.00,NNE,31,7.0,11.0,60,-99.99,,,-99.99,,2013-02-13 18:11:00,
2013-02-13 13:22:00,30.0,18.0,-100.00,NE,41,8.0,12.0,60,-99.99,,,-99.99,,2013-02-13 18:22:00,
2013-02-13 13:32:00,31.0,18.0,-100.00,NE,41,7.0,11.0,59,-99.99,,,-99.99,,2013-02-13 18:32:00,
2013-02-13 13:41:00,31.0,18.0,-100.00,NE,41,7.0,11.0,59,-99.99,,,-99.99,,2013-02-13 18:41:00,
2013-02-13 13:51:00,32.0,19.0,-100.00,ENE,59,7.0,11.0,57,-99.99,,,-99.99,,2013-02-13 18:51:00,
2013-02-13 14:01:00,32.0,18.0,-100.00,NE,40,7.0,10.0,56,-99.99,,,-99.99,,2013-02-13 19:01:00,
2013-02-13 14:11:00,33.0,20.0,-100.00,NNE,28,6.0,10.0,57,-99.99,,,-99.99,,2013-02-13 19:11:00,
2013-02-13 14:21:00,34.0,19.0,-100.00,NNE,27,5.0,8.0,54,-99.99,,,-99.99,,2013-02-13 19:21:00,
2013-02-13 14:31:00,35.0,19.0,-100.00,NNE,32,4.0,8.0,52,-99.99,,,-99.99,,2013-02-13 19:31:00,
2013-02-13 14:41:00,37.0,19.0,-100.00,North,360,1.0,5.0,49,-99.99,,,-99.99,,2013-02-13 19:41:00,
2013-02-13 14:51:00,36.0,19.0,-100.00,North,350,3.0,9.0,50,-99.99,,,-99.99,,2013-02-13 19:51:00,
2013-02-13 15:02:00,35.0,21.0,-100.00,NW,323,6.0,8.0,55,-99.99,,,-99.99,,2013-02-13 20:02:00,
2013-02-13 15:11:00,35.0,20.0,-100.00,NW,325,6.0,10.0,53,-99.99,,,-99.99,,2013-02-13 20:11:00,
2013-02-13 15:21:00,35.0,21.0,-100.00,NNW,328,7.0,10.0,56,-99.99,,,-99.99,,2013-02-13 20:21:00,
2013-02-13 15:31:00,36.0,21.0,-100.00,NNW,337,5.0,7.0,55,-99.99,,,-99.99,,2013-02-13 20:31:00,
2013-02-13 15:41:00,36.0,20.0,-100.00,NNW,335,5.0,7.0,51,-99.99,,,-99.99,,2013-02-13 20:41:00,
2013-02-13 15:52:00,37.0,20.0,-100.00,NNW,343,4.0,7.0,50,-99.99,,,-99.99,,2013-02-13 20:52:00,
2013-02-13 16:01:00,38.0,21.0,-100.00,NNW,333,4.0,7.0,50,-99.99,,,-99.99,,2013-02-13 21:01:00,
2013-02-13 16:11:00,37.0,20.0,-100.00,NW,318,5.0,8.0,50,-99.99,,,-99.99,,2013-02-13 21:11:00,
2013-02-13 16:21:00,38.0,21.0,-100.00,NNW,336,4.0,6.0,51,-99.99,,,-99.99,,2013-02-13 21:21:00,
2013-02-13 16:31:00,38.0,22.0,-100.00,NNW,339,5.0,6.0,54,-99.99,,,-99.99,,2013-02-13 21:31:00,
2013-02-13 16:42:00,38.0,22.0,-100.00,NNW,339,5.0,7.0,52,-99.99,,,-99.99,,2013-02-13 21:42:00,
2013-02-13 16:52:00,38.0,21.0,-100.00,NW,322,5.0,10.0,51,-99.99,,,-99.99,,2013-02-13 21:52:00,
2013-02-13 17:02:00,37.0,22.0,-100.00,NW,325,5.0,9.0,54,-99.99,,,-99.99,,2013-02-13 22:02:00,
2013-02-13 17:11:00,37.0,22.0,-100.00,NNW,330,8.0,11.0,54,-99.99,,,-99.99,,2013-02-13 22:11:00,
2013-02-13 17:21:00,37.0,21.0,-100.00,NNW,333,8.0,12.0,53,-99.99,,,-99.99,,2013-02-13 22:21:00,
2013-02-13 17:31:00,37.0,22.0,-100.00,NNW,328,7.0,11.0,53,-99.99,,,-99.99,,2013-02-13 22:31:00,
2013-02-13 17:42:00,37.0,22.0,-100.00,NNW,335,7.0,11.0,55,-99.99,,,-99.99,,2013-02-13 22:42:00,
2013-02-13 17:51:00,36.0,21.0,-100.00,NNW,332,7.0,11.0,54,-99.99,,,-99.99,,2013-02-13 22:51:00,
2013-02-13 18:01:00,36.0,22.0,-100.00,NNW,333,8.0,12.0,56,-99.99,,,-99.99,,2013-02-13 23:01:00,
2013-02-13 18:11:00,36.0,21.0,-100.00,NNW,329,8.0,12.0,54,-99.99,,,-99.99,,2013-02-13 23:11:00,
2013-02-13 18:21:00,37.0,21.0,-100.00,NNW,329,6.0,12.0,53,-99.99,,,-99.99,,2013-02-13 23:21:00,
2013-02-13 18:31:00,37.0,21.0,-100.00,NNW,329,6.0,11.0,53,-99.99,,,-99.99,,2013-02-13 23:31:00,
2013-02-13 18:41:00,36.0,21.0,-100.00,NNW,333,7.0,12.0,54,-99.99,,,-99.99,,2013-02-13 23:41:00,
2013-02-13 18:52:00,36.0,22.0,-100.00,NNW,342,6.0,11.0,56,-99.99,,,-99.99,,2013-02-13 23:52:00,
2013-02-13 19:01:00,36.0,23.0,-100.00,NNW,329,7.0,11.0,59,-99.99,,,-99.99,,2013-02-14 00:01:00,
2013-02-13 19:11:00,36.0,23.0,-100.00,NNW,329,7.0,11.0,59,-99.99,,,-99.99,,2013-02-14 00:11:00,
2013-02-13 19:21:00,36.0,22.0,-100.00,NW,325,9.0,14.0,57,-99.99,,,-99.99,,2013-02-14 00:21:00,
2013-02-13 19:31:00,36.0,22.0,-100.00,NW,325,9.0,14.0,57,-99.99,,,-99.99,,2013-02-14 00:31:00,
2013-02-13 19:42:00,35.0,23.0,-100.00,NW,311,7.0,12.0,60,-99.99,,,-99.99,,2013-02-14 00:42:00,
2013-02-13 19:51:00,35.0,22.0,-100.00,NW,323,6.0,10.0,60,-99.99,,,-99.99,,2013-02-14 00:51:00,
2013-02-13 20:01:00,34.0,22.0,-100.00,NNW,346,6.0,8.0,62,-99.99,,,-99.99,,2013-02-14 01:01:00,
2013-02-13 20:11:00,34.0,22.0,-100.00,NNW,346,6.0,8.0,62,-99.99,,,-99.99,,2013-02-14 01:11:00,
2013-02-13 20:21:00,33.0,22.0,-100.00,NNW,335,5.0,8.0,64,-99.99,,,-99.99,,2013-02-14 01:21:00,
2013-02-13 20:31:00,33.0,22.0,-100.00,NNW,335,5.0,8.0,64,-99.99,,,-99.99,,2013-02-14 01:31:00,
2013-02-13 20:41:00,31.0,22.0,-100.00,NW,323,6.0,9.0,70,-99.99,,,-99.99,,2013-02-14 01:41:00,
2013-02-13 20:51:00,29.0,21.0,-100.00,NNW,335,6.0,8.0,71,-99.99,,,-99.99,,2013-02-14 01:51:00,
2013-02-13 21:01:00,28.0,21.0,-100.00,North,357,4.0,6.0,74,-99.99,,,-99.99,,2013-02-14 02:01:00,
2013-02-13 21:11:00,27.0,20.0,-100.00,NNW,336,1.0,4.0,75,-99.99,,,-99.99,,2013-02-14 02:11:00,
2013-02-13 21:21:00,26.0,20.0,-100.00,North,353,2.0,5.0,76,-99.99,,,-99.99,,2013-02-14 02:21:00,
2013-02-13 21:31:00,26.0,20.0,-100.00,WSW,251,0.0,2.0,79,-99.99,,,-99.99,,2013-02-14 02:31:00,
2013-02-13 21:41:00,26.0,20.0,-100.00,WSW,251,0.0,2.0,79,-99.99,,,-99.99,,2013-02-14 02:41:00,
2013-02-13 21:52:00,26.0,20.0,-100.00,WSW,251,0.0,2.0,79,-99.99,,,-99.99,,2013-02-14 02:52:00,
2013-02-13 22:02:00,25.0,20.0,-100.00,ESE,109,0.0,2.0,82,-99.99,,,-99.99,,2013-02-14 03:02:00,
2013-02-13 22:11:00,25.0,21.0,-100.00,ESE,107,1.0,3.0,82,-99.99,,,-99.99,,2013-02-14 03:11:00,
2013-02-13 22:21:00,25.0,20.0,-100.00,NNE,25,1.0,2.0,82,-99.99,,,-99.99,,2013-02-14 03:21:00,
2013-02-13 22:31:00,24.0,20.0,-100.00,NNE,17,1.0,4.0,83,-99.99,,,-99.99,,2013-02-14 03:31:00,
2013-02-13 22:42:00,24.0,20.0,-100.00,NNW,336,3.0,6.0,84,-99.99,,,-99.99,,2013-02-14 03:42:00,
2013-02-13 22:51:00,24.0,20.0,-100.00,NNE,21,2.0,6.0,86,-99.99,,,-99.99,,2013-02-14 03:51:00,
2013-02-13 23:01:00,23.0,20.0,-100.00,North,11,1.0,4.0,86,-99.99,,,-99.99,,2013-02-14 04:01:00,
2013-02-13 23:11:00,23.0,19.0,-100.00,North,360,2.0,6.0,86,-99.99,,,-99.99,,2013-02-14 04:11:00,
2013-02-13 23:21:00,23.0,19.0,-100.00,NNW,330,6.0,8.0,86,-99.99,,,-99.99,,2013-02-14 04:21:00,
2013-02-13 23:31:00,22.0,18.0,-100.00,NNW,336,6.0,8.0,85,-99.99,,,-99.99,,2013-02-14 04:31:00,
2013-02-13 23:41:00,21.0,17.0,-100.00,North,359,3.0,5.0,87,-99.99,,,-99.99,,2013-02-14 04:41:00,
2013-02-13 23:51:00,21.0,17.0,-100.00,North,359,3.0,5.0,87,-99.99,,,-99.99,,2013-02-14 04:51:00,